TimeEST,TemperatureF,Dew PointF,Humidity,Sea Level PressureIn,VisibilityMPH,Wind Direction,Wind SpeedMPH,Gust SpeedMPH,PrecipitationIn,Events,Conditions,WindDirDegrees,DateUTC
12:52 AM,30.0,26.1,85,29.91,9.0,Calm,Calm,-,N/A,,Overcast,0,2014-01-18 05:52:00
1:52 AM,30.0,27.0,88,29.90,9.0,Calm,Calm,-,N/A,,Overcast,0,2014-01-18 06:52:00
2:52 AM,30.9,27.0,85,29.88,8.0,Calm,Calm,-,N/A,,Overcast,0,2014-01-18 07:52:00
3:52 AM,30.9,28.0,89,29.86,8.0,Calm,Calm,-,N/A,,Overcast,0,2014-01-18 08:52:00
4:52 AM,30.9,28.0,89,29.84,8.0,Calm,Calm,-,N/A,,Overcast,0,2014-01-18 09:52:00
5:52 AM,32.0,28.9,88,29.82,8.0,North,4.6,-,N/A,,Overcast,10,2014-01-18 10:52:00
6:52 AM,33.1,30.0,89,29.80,8.0,North,4.6,-,N/A,,Overcast,10,2014-01-18 11:52:00
7:52 AM,33.1,30.9,92,29.78,7.0,NW,5.8,-,N/A,,Overcast,320,2014-01-18 12:52:00
8:52 AM,36.0,32.0,86,29.77,9.0,NE,3.5,-,N/A,,Overcast,40,2014-01-18 13:52:00
9:26 AM,37.0,32.0,82,29.75,10.0,NE,9.2,-,N/A,,Overcast,40,2014-01-18 14:26:00
9:52 AM,37.0,32.0,82,29.75,10.0,NE,6.9,-,N/A,,Overcast,40,2014-01-18 14:52:00
10:52 AM,37.0,33.1,86,29.70,8.0,NNE,6.9,-,0.00,Rain,Light Rain,30,2014-01-18 15:52:00
11:40 AM,37.0,34.0,89,29.66,9.0,NNE,5.8,-,0.00,Rain,Light Rain,20,2014-01-18 16:40:00
11:52 AM,37.0,34.0,89,29.65,7.0,NE,4.6,-,0.00,Rain,Light Rain,40,2014-01-18 16:52:00
12:52 PM,37.9,35.1,89,29.63,10.0,North,4.6,-,0.00,,Overcast,10,2014-01-18 17:52:00
1:52 PM,37.9,34.0,86,29.61,10.0,NNE,6.9,-,N/A,,Overcast,30,2014-01-18 18:52:00
2:52 PM,37.9,34.0,86,29.62,10.0,NNE,5.8,-,N/A,,Overcast,20,2014-01-18 19:52:00
3:52 PM,37.0,34.0,89,29.63,10.0,NNW,3.5,-,0.01,Rain,Light Rain,340,2014-01-18 20:52:00
4:52 PM,36.0,33.1,89,29.65,8.0,West,9.2,-,0.00,Rain,Light Rain,270,2014-01-18 21:52:00
5:52 PM,35.1,32.0,89,29.67,7.0,WNW,9.2,-,0.00,,Overcast,290,2014-01-18 22:52:00
6:07 PM,35.1,30.9,85,29.67,9.0,WNW,6.9,-,N/A,,Overcast,300,2014-01-18 23:07:00
6:29 PM,35.1,30.9,85,29.67,10.0,WNW,8.1,-,N/A,,Overcast,290,2014-01-18 23:29:00
6:52 PM,35.1,32.0,89,29.68,10.0,West,4.6,-,N/A,,Overcast,280,2014-01-18 23:52:00
7:04 PM,35.1,32.0,89,29.67,9.0,West,5.8,-,N/A,,Overcast,280,2014-01-19 00:04:00
7:33 PM,35.1,30.9,85,29.68,8.0,WNW,6.9,-,N/A,,Overcast,290,2014-01-19 00:33:00
7:52 PM,34.0,30.0,85,29.69,9.0,WNW,9.2,17.3,N/A,,Overcast,300,2014-01-19 00:52:00
8:02 PM,34.0,30.0,85,29.69,7.0,WNW,9.2,17.3,N/A,,Overcast,290,2014-01-19 01:02:00
8:52 PM,33.1,27.0,78,29.71,10.0,WNW,13.8,19.6,N/A,,Overcast,290,2014-01-19 01:52:00
9:52 PM,32.0,25.0,75,29.74,10.0,NW,9.2,-,N/A,,Overcast,320,2014-01-19 02:52:00
10:52 PM,30.9,25.0,79,29.75,10.0,West,6.9,-,N/A,,Overcast,280,2014-01-19 03:52:00
11:52 PM,30.9,23.0,72,29.74,10.0,WNW,8.1,-,N/A,,Overcast,300,2014-01-19 04:52:00